Tracking 19827 objects as of 21-Aug-2019
HD Live streaming from Space Station
objects crossing your sky now

COSMOS 2251 DEB

Track COSMOS 2251 DEB now!
10-day predictions


NORAD ID: 34997
Int'l Code: 1993-036AFV
Perigee: 717.6 km
Apogee: 893.8 km
Inclination: 73.9 °
Period: 100.8 minutes
Semi major axis: 7176 km
RCS: 0.0096 m2 (small)
Launch date: June 16, 1993
Source: Commonwealth of Independent States (former USSR) (CIS)
Launch site: PLESETSK MISSILE AND SPACE COMPLEX (PKMTR)

Note: This is SATELLITE DEBRIS
aabbcc
Your satellite tracking list
Your tracking list is empty




NASA's NSSDC Master Catalog

Two Line Element Set (TLE):
1 34997U 93036AFV 19232.72201335 +.00000343 +00000-0 +13800-3 0  9998
2 34997 073.8864 242.3401 0122795 324.9143 034.3958 14.27960655377192
Source of the keplerian elements: AFSPC